Temp
7 7 8 8 9 11 12 13 15 16 16 16 16 16 16 16 16 16 16 17 17 18
6 6 7 7 8 9 10 11 13 14 16 17 16 16 15 15 15 16 16 16 17 17
6 6 6 6 7 7 8 9 10 12 14 16 16 15 15 15 15 16 16 16 17 17
5 5 5 6 6 7 7 7 9 10 12 13 15 16 15 15 16 16 16 16 17 17
5 5 5 5 5 6 6 7 8 9 9 11 12 13 16 15 15 15 15 16 16 17
4 4 5 5 5 5 6 6 7 7 8 9 10 11 13 14 16 16 16 15 16 16
4 4 4 4 4 4 5 5 6 6 7 7 9 10 11 12 13 16 16 15 15 16
3 3 4 4 4 4 4 5 5 6 6 6 7 6 6 8 9 12 15 16 15 15
3 3 3 3 3 3 4 4 4 5 5 5 5 5 5 4 6 9 11 14 15 16
3 3 3 3 3 3 3 3 3 4 4 4 4 4 4 4 4 6 8 10 13 15
2 2 2 2 3 2 2 2 2 3 3 3 3 3 3 3 3 3 4 6 8 11
2 2 2 2 2 1 1 1 1 2 2 3 2 3 2 2 2 2 3 4 7 7
1 1 1 1 1 0 -0 0 0 1 1 1 2 1 1 0 0 1 1 2 4 5
1 0 0 1 0 -1 -0 0 -0 0 0 0 0 0 -0 -1 -1 -1 -0 1 2 3
Height
837 832 828 824 819 812 812 811 809 806 807 807 810 812 816 819 820 823 823 826 828 833
838 832 827 822 817 810 808 807 805 802 802 801 804 804 806 810 812 814 816 816 819 822
838 833 827 823 818 813 808 805 801 798 795 795 795 796 801 800 801 807 806 807 810 812
837 832 827 823 818 813 808 804 799 795 793 792 789 789 789 790 790 796 797 798 799 800
839 832 827 822 817 811 806 802 799 794 790 789 786 785 782 780 784 784 784 786 790 791
838 833 827 821 816 811 807 802 799 793 788 785 783 780 777 777 773 772 774 776 780 783
841 836 830 823 816 810 807 802 797 793 788 784 782 777 772 769 769 766 764 768 769 772
839 834 829 823 816 810 806 801 796 791 785 781 781 775 771 766 763 760 760 759 760 759
835 830 827 822 815 810 804 800 796 791 786 781 778 774 770 766 760 757 755 754 751 749
832 828 825 821 816 810 805 801 795 790 785 779 774 770 767 762 757 754 750 747 745 741
833 828 823 819 815 810 806 800 795 789 783 777 772 768 763 758 754 751 747 744 741 736
832 826 821 816 813 808 803 799 793 788 783 777 772 767 762 758 753 748 744 738 733 730
831 826 820 816 811 806 802 798 792 787 783 776 769 765 763 761 754 750 743 736 730 724
829 824 818 813 808 803 797 793 787 782 778 773 768 764 762 760 756 752 744 737 730 725
Wind_Speed
24 21 18 19 21 19 17 18 15 30 33 37 40 38 34 34 35 35 38 38 38 34
23 23 22 21 19 21 21 21 18 14 37 37 39 37 35 34 36 35 37 37 38 38
22 22 22 20 21 21 20 21 21 19 17 32 38 36 37 37 34 36 37 36 35 36
23 23 22 20 21 22 22 21 21 21 20 19 20 35 37 38 36 36 37 36 35 38
21 22 23 23 22 22 23 21 21 20 21 21 18 22 26 36 39 38 34 37 36 38
22 21 23 24 24 22 21 21 21 20 20 24 24 24 25 25 35 36 37 36 36 36
19 20 19 20 23 23 21 20 20 19 18 18 21 19 18 21 25 29 36 41 42 37
18 18 19 19 20 22 23 21 19 19 18 18 19 20 28 27 25 25 30 36 39 43
20 20 21 21 21 20 22 23 20 18 18 17 17 23 28 32 29 27 28 31 32 31
22 22 22 20 21 22 21 21 22 20 18 18 20 24 27 33 26 24 25 28 31 35
20 21 22 21 22 21 21 20 20 21 21 17 17 24 28 33 29 24 22 22 24 29
19 22 22 22 23 22 20 20 20 20 20 19 18 22 27 32 31 27 28 27 28 27
18 20 20 20 21 20 20 20 20 20 19 20 19 23 26 29 29 26 29 28 29 27
18 21 19 19 21 22 22 23 22 21 22 20 19 22 27 28 28 26 29 25 27 28
Wind_Direction
351 347 343 339 334 339 341 314 281 260 258 253 244 236 232 230 230 229 227 225 225 228
350 349 343 340 339 338 329 325 299 317 252 258 248 239 234 229 232 231 230 230 228 225
346 349 346 342 341 340 335 329 326 317 318 246 248 238 232 231 236 234 230 230 230 230
345 345 349 347 343 340 338 336 333 326 322 307 278 245 237 236 233 229 231 231 231 233
343 344 345 349 346 340 339 337 336 331 324 320 320 294 253 228 231 230 228 233 233 238
344 344 344 341 345 344 340 337 335 338 332 321 323 312 305 294 243 234 231 235 235 234
342 340 337 338 338 342 341 338 336 336 341 337 335 330 322 303 289 258 231 237 235 236
342 343 340 342 344 338 340 340 338 336 345 350 346 355 347 334 315 284 277 242 229 232
345 347 343 342 346 346 340 340 342 345 345 352 354 340 348 350 328 318 283 274 259 247
343 342 342 340 344 346 342 336 338 343 349 350 356 352 352 355 343 324 316 289 281 256
343 338 337 340 342 344 341 338 335 335 343 346 349 350 353 353 352 345 328 310 306 297
339 337 336 339 339 342 340 336 337 333 331 338 342 354 357 355 352 345 336 335 322 309
332 335 334 335 337 337 338 332 334 334 332 329 337 344 352 356 351 338 334 336 332 333
330 334 333 333 334 335 336 335 334 336 336 337 339 337 347 353 348 338 328 324 327 329